TimeAST,TemperatureF,Dew PointF,Humidity,Sea Level PressureIn,VisibilityMPH,Wind Direction,Wind SpeedMPH,Gust SpeedMPH,PrecipitationIn,Events,Conditions,WindDirDegrees,DateUTC
1:00 AM,29.1,27.7,94,29.89,-9999.0,ESE,5.8,-,N/A,,Unknown,110,2013-02-20 05:00:00
2:00 AM,30,28,86,29.88,,SE,5.8,,,,,140,2013-02-20 06:00:00
2:00 AM,30.0,27.5,90,29.88,-9999.0,SE,5.8,-,N/A,,Unknown,140,2013-02-20 06:00:00
3:00 AM,30.4,28.4,92,29.86,-9999.0,SE,6.9,-,N/A,,Unknown,140,2013-02-20 07:00:00
4:00 AM,31.3,29.7,94,29.82,-9999.0,SE,8.1,-,N/A,,Unknown,130,2013-02-20 08:00:00
5:00 AM,31.8,30.9,96,29.78,-9999.0,SE,9.2,-,N/A,,Unknown,130,2013-02-20 09:00:00
6:00 AM,31.5,31.6,100,29.72,-9999.0,SE,10.4,17.3,N/A,,Unknown,130,2013-02-20 10:00:00
7:00 AM,33.6,32.9,97,29.67,-9999.0,SE,12.7,24.2,N/A,,Unknown,130,2013-02-20 11:00:00
8:00 AM,35,34,94,29.58,,SE,15.0,,,,,130,2013-02-20 12:00:00
8:00 AM,34.7,34.0,97,29.58,-9999.0,SE,15.0,27.6,N/A,,Unknown,130,2013-02-20 12:00:00
9:00 AM,35.1,34.2,97,29.50,-9999.0,SE,18.4,34.5,N/A,,Unknown,130,2013-02-20 13:00:00
10:00 AM,36.5,35.8,97,29.46,-9999.0,SE,13.8,24.2,N/A,,Unknown,130,2013-02-20 14:00:00
11:00 AM,37.6,36.9,97,29.48,-9999.0,SSE,5.8,-,N/A,,Unknown,160,2013-02-20 15:00:00
12:00 PM,37.9,37.0,97,29.46,-9999.0,WNW,3.5,-,N/A,,Unknown,300,2013-02-20 16:00:00
2:00 PM,43,36,68,29.41,,WNW,5.8,,,,,290,2013-02-20 18:00:00
2:00 PM,42.6,36.0,77,29.41,-9999.0,WNW,5.8,-,N/A,,Unknown,290,2013-02-20 18:00:00
3:00 PM,44.1,33.4,66,29.39,-9999.0,WNW,5.8,-,N/A,,Unknown,290,2013-02-20 19:00:00
4:00 PM,41.4,32.0,69,29.39,-9999.0,West,6.9,-,N/A,,Unknown,270,2013-02-20 20:00:00
5:00 PM,37.6,31.6,79,29.42,-9999.0,West,6.9,-,N/A,,Unknown,270,2013-02-20 21:00:00
6:00 PM,34.2,30.0,85,29.44,-9999.0,West,5.8,-,N/A,,Unknown,280,2013-02-20 22:00:00
7:00 PM,33.6,30.6,89,29.46,-9999.0,West,5.8,-,N/A,,Unknown,270,2013-02-20 23:00:00
8:00 PM,33,30,85,29.46,,WNW,4.6,,,,,290,2013-02-21 00:00:00
8:00 PM,32.9,30.2,90,29.46,-9999.0,WNW,4.6,-,N/A,,Unknown,290,2013-02-21 00:00:00
10:00 PM,31.6,30.6,96,29.45,-9999.0,West,3.5,-,N/A,,Unknown,270,2013-02-21 02:00:00
11:00 PM,32.0,31.3,97,29.45,-9999.0,West,3.5,-,N/A,,Unknown,260,2013-02-21 03:00:00